N5828R KDCA-KDCA

Flight info

Callsign N5828R
Flight time 0h 3m
Altitude VFR
Route
Aircraft C152/L-VGD/C

Departure

Time 2026-05-06 21:06
Airport Ronald Reagan Washington National Airport (KDCA)

Arrival

Time 2026-05-06 21:09
Airport Ronald Reagan Washington National Airport (KDCA)
Time Latitude Longitude Altitude Speed Heading
2026-05-06 20:54 38.84430 -77.04168 21 ft 0 kts 79°
2026-05-06 20:59 38.84451 -77.04127 22 ft 8 kts
2026-05-06 21:00 38.84523 -77.04136 23 ft 13 kts 14°
2026-05-06 21:00 38.84561 -77.04037 21 ft 17 kts 56°
2026-05-06 21:00 38.84618 -77.03982 19 ft 2 kts
2026-05-06 21:00 38.84687 -77.03935 19 ft 17 kts 28°
2026-05-06 21:01 38.84802 -77.03882 17 ft 17 kts 355°
2026-05-06 21:01 38.84936 -77.03895 14 ft 22 kts 355°
2026-05-06 21:01 38.85090 -77.03911 16 ft 22 kts 354°
2026-05-06 21:01 38.85256 -77.03925 15 ft 26 kts 353°
2026-05-06 21:02 38.85431 -77.03946 19 ft 25 kts 354°
2026-05-06 21:02 38.85592 -77.03966 21 ft 18 kts 326°
2026-05-06 21:02 38.85685 -77.04065 24 ft 17 kts 324°
2026-05-06 21:02 38.85793 -77.04173 23 ft 22 kts 321°
2026-05-06 21:03 38.85927 -77.04301 22 ft 25 kts 322°
2026-05-06 21:03 38.86034 -77.04397 18 ft 14 kts 336°
2026-05-06 21:03 38.86058 -77.04399 18 ft 0 kts 28°
2026-05-06 21:04 38.86059 -77.04398 18 ft 1 kts 32°
2026-05-06 21:04 38.86094 -77.04341 17 ft 15 kts 59°
2026-05-06 21:05 38.86046 -77.04260 19 ft 26 kts 144°
2026-05-06 21:05 38.85800 -77.04004 97 ft 53 kts 155°
2026-05-06 21:05 38.85479 -77.03737 270 ft 59 kts 161°
2026-05-06 21:05 38.85117 -77.03478 543 ft 59 kts 164°
2026-05-06 21:06 38.84720 -77.03400 791 ft 58 kts 172°
2026-05-06 21:06 38.84291 -77.03186 908 ft 69 kts 163°
2026-05-06 21:06 38.83909 -77.03256 1154 ft 54 kts 230°
2026-05-06 21:06 38.83799 -77.03764 1288 ft 58 kts 257°
2026-05-06 21:07 38.84022 -77.04301 1283 ft 88 kts 319°
2026-05-06 21:07 38.84668 -77.04545 1311 ft 98 kts 345°
2026-05-06 21:07 38.85342 -77.04683 1426 ft 101 kts 346°
2026-05-06 21:07 38.86080 -77.04756 1486 ft 108 kts 350°
2026-05-06 21:08 38.86833 -77.04819 1585 ft 109 kts 349°
2026-05-06 21:08 38.87592 -77.04936 1722 ft 102 kts 341°
2026-05-06 21:08 38.88176 -77.04535 1766 ft 101 kts 76°
2026-05-06 21:08 38.87833 -77.03920 1172 ft 97 kts 181°
2026-05-06 21:09 38.87126 -77.03966 475 ft 102 kts 182°
2026-05-06 21:09 38.86482 -77.03896 164 ft 79 kts 178°
2026-05-06 21:09 38.86026 -77.03858 57 ft 54 kts 181°
2026-05-06 21:09 38.85742 -77.03829 22 ft 29 kts 185°
2026-05-06 21:10 38.85511 -77.03812 28 ft 49 kts 175°
2026-05-06 21:10 38.85109 -77.03770 136 ft 63 kts 179°
2026-05-06 21:10 38.84648 -77.03708 269 ft 68 kts 176°
2026-05-06 21:10 38.84177 -77.03607 438 ft 65 kts 176°
2026-05-06 21:11 38.83752 -77.03545 654 ft 59 kts 188°
2026-05-06 21:11 38.83510 -77.03965 837 ft 69 kts 256°
2026-05-06 21:11 38.83661 -77.04575 1002 ft 92 kts 313°
2026-05-06 21:11 38.84327 -77.04730 1141 ft 104 kts 351°
2026-05-06 21:12 38.85040 -77.04731 1198 ft 100 kts 355°
2026-05-06 21:12 38.85742 -77.04730 1162 ft 104 kts 354°
2026-05-06 21:12 38.86433 -77.04691 1059 ft 98 kts 355°
2026-05-06 21:12 38.86987 -77.04345 1007 ft 89 kts 72°
2026-05-06 21:13 38.86755 -77.03865 507 ft 71 kts 190°
2026-05-06 21:13 38.86274 -77.03880 115 ft 58 kts 181°
2026-05-06 21:13 38.85944 -77.03851 32 ft 39 kts 182°
2026-05-06 21:13 38.85739 -77.03837 19 ft 24 kts 179°
2026-05-06 21:14 38.85565 -77.03822 20 ft 24 kts 177°
2026-05-06 21:14 38.85449 -77.03821 20 ft 31 kts 172°
2026-05-06 21:14 38.85263 -77.03853 15 ft 15 kts 256°
2026-05-06 21:14 38.85257 -77.03893 15 ft 0 kts 241°
2026-05-06 21:15 38.85210 -77.03921 16 ft 16 kts 181°
2026-05-06 21:15 38.85120 -77.03972 15 ft 16 kts 193°
2026-05-06 21:16 38.84989 -77.03961 15 ft 21 kts 175°
2026-05-06 21:16 38.84845 -77.03946 16 ft 20 kts 175°
2026-05-06 21:16 38.84728 -77.03979 18 ft 16 kts 204°
2026-05-06 21:16 38.84634 -77.04039 19 ft 14 kts 211°
2026-05-06 21:17 38.84583 -77.04135 22 ft 14 kts 258°
2026-05-06 21:17 38.84566 -77.04287 19 ft 19 kts 267°
2026-05-06 21:17 38.84560 -77.04410 18 ft 9 kts 182°
2026-05-06 21:17 38.84535 -77.04393 18 ft 0 kts 148°